N172ZB KSAT-KAUS

Flight info

Callsign N172ZB
Flight time 0h 37m
Altitude 4000
Route SAT PINCH HOUKM
Aircraft C172/L-VGD/C

Departure

Time 2026-04-26 22:25
Airport San Antonio International Airport (KSAT)

Arrival

Time 2026-04-26 23:02
Airport Austin Bergstrom International Airport (KAUS)
Time Latitude Longitude Altitude Speed Heading
2026-04-26 22:05 29.53792 -98.47088 809 ft 0 kts 299°
2026-04-26 22:20 29.53792 -98.47090 790 ft 2 kts 277°
2026-04-26 22:21 29.53777 -98.47090 791 ft 4 kts 154°
2026-04-26 22:21 29.53743 -98.47107 791 ft 8 kts 221°
2026-04-26 22:21 29.53718 -98.47172 790 ft 10 kts 294°
2026-04-26 22:21 29.53766 -98.47237 789 ft 11 kts 313°
2026-04-26 22:22 29.53822 -98.47308 789 ft 12 kts 311°
2026-04-26 22:22 29.53877 -98.47380 791 ft 12 kts 311°
2026-04-26 22:22 29.53932 -98.47452 792 ft 12 kts 312°
2026-04-26 22:22 29.53994 -98.47529 793 ft 13 kts 311°
2026-04-26 22:23 29.54054 -98.47607 796 ft 12 kts 311°
2026-04-26 22:23 29.54092 -98.47675 799 ft 8 kts 267°
2026-04-26 22:23 29.54064 -98.47720 800 ft 6 kts 221°
2026-04-26 22:23 29.54039 -98.47745 801 ft 4 kts 220°
2026-04-26 22:24 29.54019 -98.47753 801 ft 4 kts 156°
2026-04-26 22:24 29.53954 -98.47669 797 ft 36 kts 131°
2026-04-26 22:24 29.53694 -98.47332 822 ft 70 kts 132°
2026-04-26 22:24 29.53351 -98.46895 1003 ft 76 kts 132°
2026-04-26 22:25 29.53010 -98.46407 1270 ft 79 kts 123°
2026-04-26 22:25 29.53060 -98.45785 1516 ft 91 kts 54°
2026-04-26 22:25 29.53523 -98.45296 1823 ft 92 kts 45°
2026-04-26 22:25 29.54026 -98.44816 2006 ft 96 kts 42°
2026-04-26 22:26 29.54524 -98.44355 2242 ft 91 kts 43°
2026-04-26 22:26 29.55051 -98.43893 2392 ft 95 kts 44°
2026-04-26 22:26 29.55593 -98.43470 2548 ft 98 kts 23°
2026-04-26 22:26 29.56254 -98.43542 2727 ft 101 kts 344°
2026-04-26 22:27 29.56973 -98.43760 2862 ft 108 kts 346°
2026-04-26 22:27 29.57681 -98.43986 3054 ft 106 kts 346°
2026-04-26 22:27 29.58390 -98.44213 3220 ft 107 kts 344°
2026-04-26 22:27 29.59101 -98.44440 3393 ft 105 kts 345°
2026-04-26 22:28 29.59796 -98.44662 3554 ft 103 kts 345°
2026-04-26 22:28 29.60509 -98.44889 3670 ft 109 kts 345°
2026-04-26 22:28 29.61228 -98.45117 3848 ft 107 kts 343°
2026-04-26 22:28 29.61946 -98.45345 3998 ft 109 kts 344°
2026-04-26 22:29 29.62708 -98.45584 4009 ft 118 kts 343°
2026-04-26 22:29 29.63513 -98.45840 4009 ft 122 kts 344°
2026-04-26 22:29 29.64360 -98.45997 4003 ft 125 kts
2026-04-26 22:29 29.65134 -98.45603 4003 ft 121 kts 38°
2026-04-26 22:30 29.65852 -98.45090 4005 ft 121 kts 35°
2026-04-26 22:30 29.66565 -98.44577 3999 ft 120 kts 37°
2026-04-26 22:30 29.67271 -98.44072 3992 ft 119 kts 37°
2026-04-26 22:30 29.67971 -98.43571 3974 ft 118 kts 36°
2026-04-26 22:31 29.68674 -98.43067 3985 ft 121 kts 37°
2026-04-26 22:31 29.69395 -98.42550 3985 ft 124 kts 36°
2026-04-26 22:31 29.70124 -98.42026 3984 ft 126 kts 38°
2026-04-26 22:31 29.70876 -98.41488 3990 ft 129 kts 37°
2026-04-26 22:32 29.71658 -98.40924 3985 ft 135 kts 37°
2026-04-26 22:32 29.72460 -98.40348 3984 ft 138 kts 36°
2026-04-26 22:32 29.73286 -98.39756 3988 ft 141 kts 38°
2026-04-26 22:32 29.74128 -98.39150 3984 ft 143 kts 36°
2026-04-26 22:33 29.74966 -98.38551 3985 ft 141 kts 37°
2026-04-26 22:33 29.76590 -98.37390 3967 ft 132 kts 36°
2026-04-26 22:33 29.77348 -98.36852 3971 ft 123 kts 36°
2026-04-26 22:34 29.78048 -98.36350 3967 ft 118 kts 37°
2026-04-26 22:34 29.78730 -98.35862 3967 ft 113 kts 38°
2026-04-26 22:34 29.79389 -98.35389 3975 ft 111 kts 37°
2026-04-26 22:34 29.80039 -98.34922 3980 ft 109 kts 38°
2026-04-26 22:35 29.80684 -98.34459 3972 ft 108 kts 38°
2026-04-26 22:35 29.81321 -98.34002 3977 ft 110 kts 39°
2026-04-26 22:35 29.81971 -98.33531 3983 ft 110 kts 37°
2026-04-26 22:35 29.82623 -98.33063 3987 ft 111 kts 39°
2026-04-26 22:36 29.83286 -98.32586 3991 ft 113 kts 39°
2026-04-26 22:36 29.83945 -98.32113 3990 ft 114 kts 37°
2026-04-26 22:36 29.84618 -98.31629 3992 ft 115 kts 38°
2026-04-26 22:36 29.85294 -98.31144 3990 ft 114 kts 38°
2026-04-26 22:37 29.85964 -98.30664 3985 ft 112 kts 37°
2026-04-26 22:37 29.86624 -98.30190 3983 ft 112 kts 39°
2026-04-26 22:37 29.87288 -98.29711 3989 ft 112 kts 37°
2026-04-26 22:37 29.87946 -98.29239 3991 ft 111 kts 36°
2026-04-26 22:38 29.88607 -98.28765 3985 ft 113 kts 37°
2026-04-26 22:38 29.89268 -98.28288 3988 ft 112 kts 38°
2026-04-26 22:38 29.89930 -98.27811 3989 ft 112 kts 36°
2026-04-26 22:38 29.90595 -98.27333 3995 ft 113 kts 36°
2026-04-26 22:39 29.91265 -98.26850 4003 ft 115 kts 37°
2026-04-26 22:39 29.91950 -98.26357 3998 ft 117 kts 38°
2026-04-26 22:39 29.92635 -98.25863 4008 ft 116 kts 37°
2026-04-26 22:39 29.93320 -98.25371 4003 ft 120 kts 36°
2026-04-26 22:40 29.94042 -98.24849 4010 ft 125 kts 37°
2026-04-26 22:40 29.94784 -98.24314 3997 ft 126 kts 37°
2026-04-26 22:40 29.95531 -98.23777 4005 ft 127 kts 37°
2026-04-26 22:40 29.96282 -98.23234 4001 ft 127 kts 36°
2026-04-26 22:41 29.97020 -98.22706 3997 ft 124 kts 37°
2026-04-26 22:41 29.97759 -98.22172 3995 ft 126 kts 39°
2026-04-26 22:41 29.98499 -98.21638 4002 ft 125 kts 37°
2026-04-26 22:41 29.99220 -98.21118 3998 ft 124 kts 36°
2026-04-26 22:42 29.99952 -98.20589 3997 ft 124 kts 38°
2026-04-26 22:42 30.00681 -98.20065 3991 ft 122 kts 37°
2026-04-26 22:42 30.01401 -98.19545 3997 ft 122 kts 37°
2026-04-26 22:42 30.02118 -98.19028 3994 ft 122 kts 37°
2026-04-26 22:43 30.02836 -98.18508 4001 ft 122 kts 38°
2026-04-26 22:43 30.03557 -98.17988 4001 ft 122 kts 37°
2026-04-26 22:43 30.04278 -98.17467 4004 ft 123 kts 37°
2026-04-26 22:43 30.05006 -98.16943 3995 ft 122 kts 36°
2026-04-26 22:44 30.05707 -98.16438 3999 ft 121 kts 38°
2026-04-26 22:44 30.06428 -98.15915 4001 ft 124 kts 36°
2026-04-26 22:44 30.07157 -98.15386 4014 ft 123 kts 37°
2026-04-26 22:44 30.07890 -98.14858 4013 ft 126 kts 36°
2026-04-26 22:45 30.08640 -98.14314 4016 ft 128 kts 38°
2026-04-26 22:45 30.09384 -98.13778 4008 ft 125 kts 37°
2026-04-26 22:45 30.10119 -98.13247 4013 ft 125 kts 37°
2026-04-26 22:45 30.10863 -98.12707 4009 ft 127 kts 37°
2026-04-26 22:46 30.11535 -98.12080 4017 ft 122 kts 62°
2026-04-26 22:46 30.11917 -98.11231 4011 ft 121 kts 69°
2026-04-26 22:46 30.12302 -98.10387 4011 ft 117 kts 70°
2026-04-26 22:46 30.12684 -98.09533 4015 ft 121 kts 70°
2026-04-26 22:47 30.13071 -98.08668 4016 ft 120 kts 70°
2026-04-26 22:47 30.13453 -98.07818 4014 ft 118 kts 69°
2026-04-26 22:47 30.13831 -98.06974 4009 ft 118 kts 70°
2026-04-26 22:47 30.14205 -98.06135 4009 ft 117 kts 69°
2026-04-26 22:48 30.14579 -98.05303 4006 ft 116 kts 69°
2026-04-26 22:48 30.14946 -98.04482 4003 ft 117 kts 70°
2026-04-26 22:48 30.15320 -98.03646 4001 ft 117 kts 69°
2026-04-26 22:48 30.15693 -98.02815 3996 ft 116 kts 70°
2026-04-26 22:49 30.16132 -98.02025 3994 ft 121 kts 54°
2026-04-26 22:49 30.16727 -98.01301 3893 ft 127 kts 53°
2026-04-26 22:49 30.17323 -98.00549 3782 ft 127 kts 54°
2026-04-26 22:49 30.17919 -97.99790 3670 ft 128 kts 54°
2026-04-26 22:50 30.18530 -97.99029 3551 ft 130 kts 54°
2026-04-26 22:50 30.19150 -97.98261 3431 ft 131 kts 54°
2026-04-26 22:50 30.19765 -97.97496 3313 ft 128 kts 53°
2026-04-26 22:50 30.20363 -97.96748 3188 ft 130 kts 54°
2026-04-26 22:51 30.20990 -97.95995 3106 ft 127 kts 53°
2026-04-26 22:51 30.21575 -97.95267 3101 ft 122 kts 55°
2026-04-26 22:51 30.22162 -97.94555 3099 ft 123 kts 53°
2026-04-26 22:51 30.22715 -97.93799 3102 ft 121 kts 65°
2026-04-26 22:52 30.23050 -97.92925 3105 ft 119 kts 74°
2026-04-26 22:52 30.23391 -97.92049 3102 ft 119 kts 73°
2026-04-26 22:52 30.23723 -97.91183 3125 ft 117 kts 73°
2026-04-26 22:52 30.24028 -97.90326 3119 ft 113 kts 74°
2026-04-26 22:53 30.24336 -97.89501 3113 ft 110 kts 74°
2026-04-26 22:53 30.24668 -97.88701 3108 ft 111 kts 72°
2026-04-26 22:53 30.24985 -97.87898 3114 ft 112 kts 74°
2026-04-26 22:53 30.25283 -97.87077 3116 ft 109 kts 75°
2026-04-26 22:54 30.25600 -97.86260 3116 ft 113 kts 72°
2026-04-26 22:54 30.25923 -97.85428 3119 ft 113 kts 73°
2026-04-26 22:54 30.26222 -97.84579 3131 ft 115 kts 79°
2026-04-26 22:54 30.26379 -97.83666 3230 ft 116 kts 93°
2026-04-26 22:55 30.26452 -97.82726 3337 ft 121 kts 91°
2026-04-26 22:55 30.26519 -97.81741 3433 ft 123 kts 92°
2026-04-26 22:55 30.26576 -97.80740 3355 ft 126 kts 95°
2026-04-26 22:55 30.26612 -97.79757 3181 ft 123 kts 97°
2026-04-26 22:56 30.26611 -97.78801 3057 ft 115 kts 99°
2026-04-26 22:56 30.26595 -97.77917 3032 ft 107 kts 101°
2026-04-26 22:56 30.26566 -97.77059 2935 ft 104 kts 99°
2026-04-26 22:56 30.26572 -97.76250 2921 ft 98 kts 99°
2026-04-26 22:57 30.26567 -97.75477 2950 ft 95 kts 101°
2026-04-26 22:57 30.26557 -97.74658 2736 ft 105 kts 102°
2026-04-26 22:57 30.26564 -97.73789 2488 ft 110 kts 101°
2026-04-26 22:57 30.26564 -97.72902 2240 ft 107 kts 99°
2026-04-26 22:58 30.26550 -97.72099 2098 ft 101 kts 101°
2026-04-26 22:58 30.26499 -97.71294 1935 ft 100 kts 103°
2026-04-26 22:58 30.26442 -97.70509 1801 ft 98 kts 107°
2026-04-26 22:58 30.26386 -97.69725 1669 ft 97 kts 108°
2026-04-26 22:59 30.26322 -97.68970 1580 ft 93 kts 110°
2026-04-26 22:59 30.26244 -97.68232 1528 ft 92 kts 110°
2026-04-26 22:59 30.26152 -97.67505 1471 ft 91 kts 109°
2026-04-26 22:59 30.26030 -97.66796 1435 ft 89 kts 109°
2026-04-26 23:00 30.25758 -97.66187 1354 ft 83 kts 143°
2026-04-26 23:00 30.25231 -97.65956 1326 ft 81 kts 173°
2026-04-26 23:00 30.24684 -97.65938 1353 ft 79 kts 179°
2026-04-26 23:00 30.24117 -97.65953 1253 ft 82 kts 177°
2026-04-26 23:01 30.23557 -97.65935 1116 ft 78 kts 174°
2026-04-26 23:01 30.22987 -97.65910 1046 ft 87 kts 173°
2026-04-26 23:01 30.22366 -97.65894 941 ft 88 kts 172°
2026-04-26 23:01 30.21785 -97.65866 816 ft 81 kts 173°
2026-04-26 23:02 30.21215 -97.65826 725 ft 83 kts 172°
2026-04-26 23:02 30.20625 -97.65808 578 ft 86 kts 170°
2026-04-26 23:02 30.20074 -97.65786 482 ft 68 kts 172°
2026-04-26 23:02 30.19707 -97.65765 480 ft 42 kts 174°
2026-04-26 23:03 30.19496 -97.65765 494 ft 21 kts 190°
2026-04-26 23:03 30.19438 -97.65871 496 ft 6 kts 270°
2026-04-26 23:03 30.19438 -97.65874 496 ft 2 kts 266°
2026-04-26 23:03 30.19399 -97.65889 497 ft 11 kts 187°
2026-04-26 23:04 30.19337 -97.65889 500 ft 7 kts 178°
2026-04-26 23:04 30.19261 -97.65887 502 ft 15 kts 178°
2026-04-26 23:04 30.19133 -97.65884 505 ft 19 kts 179°
2026-04-26 23:04 30.19025 -97.65881 507 ft 14 kts 178°
2026-04-26 23:05 30.18933 -97.65876 509 ft 13 kts 178°
2026-04-26 23:05 30.18840 -97.65878 510 ft 13 kts 192°
2026-04-26 23:05 30.18807 -97.65966 508 ft 14 kts 271°
2026-04-26 23:05 30.18805 -97.66090 504 ft 16 kts 269°
2026-04-26 23:06 30.19903 -97.65783 477 ft 0 kts 172°